| time (UTC) | temp F | wind direction | speed MPH | gust MPH | rain 1hr in | rain 24hr in | rain mn in | humidity % | barometer mb |
| 20260905010142 | 54 | 135 | 0.0 | 0.0 | 0.04 | 0.24 | 0.13 | 96 | 1014.5 |
| 20260905005637 | 54 | 135 | 0.0 | 0.0 | 0.04 | 0.24 | 0.13 | 95 | 1014.5 |
| 20260905005403 | 54 | 135 | 0.0 | 0.0 | 0.06 | 0.25 | 0.13 | 95 | 1014.5 |
| 20260905004625 | 54 | 135 | 0.0 | 0.0 | 0.06 | 0.27 | 0.13 | 95 | 1014.5 |
| 20260905004118 | 55 | 135 | 0.0 | 1.0 | 0.07 | 0.29 | 0.13 | 95 | 1014.4 |
| 20260905003612 | 55 | 135 | 0.0 | 1.0 | 0.08 | 0.30 | 0.13 | 94 | 1014.2 |
| 20260905003106 | 55 | 202 | 0.0 | 4.0 | 0.09 | 0.31 | 0.13 | 95 | 1014.1 |
| 20260905002602 | 55 | 202 | 1.0 | 4.0 | 0.09 | 0.32 | 0.13 | 94 | 1014.1 |
| 20260905002054 | 55 | 229 | 0.0 | 4.0 | 0.10 | 0.32 | 0.13 | 94 | 1014.1 |
| 20260905001548 | 55 | 212 | 0.0 | 2.0 | 0.09 | 0.31 | 0.12 | 94 | 1014.1 |
| 20260905001042 | 55 | 212 | 0.0 | 2.0 | 0.08 | 0.31 | 0.11 | 93 | 1014.1 |
| 20260905000537 | 56 | 211 | 0.0 | 2.0 | 0.07 | 0.30 | 0.10 | 93 | 1014.1 |
| 20260905000030 | 56 | 212 | 0.0 | 2.0 | 0.06 | 0.30 | 0.09 | 92 | 1014.0 |
| 20260904235524 | 56 | 159 | 0.0 | 1.0 | 0.05 | 0.30 | 0.08 | 92 | 1014.0 |
| 20260904235019 | 56 | 169 | 0.0 | 3.0 | 0.04 | 0.30 | 0.07 | 91 | 1013.8 |
| 20260904234514 | 56 | 215 | 1.0 | 3.0 | 0.04 | 0.31 | 0.07 | 90 | 1013.8 |
| 20260904234006 | 57 | 198 | 1.0 | 3.0 | 0.03 | 0.32 | 0.06 | 89 | 1014.0 |
| 20260904233459 | 57 | 215 | 2.0 | 11.0 | 0.02 | 0.31 | 0.05 | 87 | 1014.0 |
| 20260904232954 | 57 | 197 | 3.0 | 11.0 | 0.01 | 0.31 | 0.04 | 85 | 1014.0 |
| 20260904232447 | 58 | 222 | 4.0 | 11.0 | 0.00 | 0.31 | 0.03 | 84 | 1014.0 |
| 20260904231942 | 58 | 182 | 5.0 | 11.0 | 0.00 | 0.32 | 0.03 | 82 | 1014.0 |
| 20260904231437 | 59 | 221 | 5.0 | 13.0 | 0.00 | 0.33 | 0.03 | 82 | 1013.8 |
| 20260904230931 | 59 | 178 | 4.0 | 13.0 | 0.00 | 0.33 | 0.03 | 81 | 1013.6 |
| 20260904230424 | 60 | 178 | 4.0 | 12.0 | 0.00 | 0.33 | 0.03 | 87 | 1013.6 |
| 20260904225918 | 60 | 193 | 3.0 | 8.0 | 0.00 | 0.33 | 0.03 | 91 | 1013.3 |
| 20260904225645 | 60 | 179 | 1.0 | 8.0 | 0.00 | 0.33 | 0.03 | 92 | 1013.2 |
| 20260904225140 | 60 | 186 | 0.0 | 2.0 | 0.00 | 0.33 | 0.03 | 94 | 1012.9 |
| 20260904224400 | 60 | 172 | 0.0 | 0.0 | 0.00 | 0.33 | 0.03 | 94 | 1012.8 |
| 20260904223854 | 60 | 172 | 0.0 | 0.0 | 0.00 | 0.33 | 0.03 | 95 | 1012.7 |
| 20260904223347 | 60 | 172 | 0.0 | 1.0 | 0.00 | 0.33 | 0.03 | 94 | 1012.6 |
| 20260904222843 | 60 | 172 | 0.0 | 1.0 | 0.00 | 0.33 | 0.03 | 94 | 1012.4 |
| 20260904222609 | 60 | 172 | 0.0 | 0.0 | 0.00 | 0.33 | 0.03 | 94 | 1012.3 |
| 20260904221830 | 61 | 172 | 0.0 | 0.0 | 0.00 | 0.33 | 0.03 | 94 | 1012.3 |
| 20260904221324 | 61 | 172 | 0.0 | 0.0 | 0.01 | 0.33 | 0.03 | 94 | 1012.4 |
| 20260904220819 | 61 | 172 | 0.0 | 0.0 | 0.01 | 0.33 | 0.03 | 94 | 1012.4 |
| 20260904220312 | 61 | 172 | 0.0 | 0.0 | 0.01 | 0.33 | 0.03 | 93 | 1012.4 |
| 20260904215806 | 61 | 172 | 0.0 | 0.0 | 0.02 | 0.33 | 0.03 | 93 | 1012.4 |
| 20260904215300 | 61 | 172 | 0.0 | 0.0 | 0.02 | 0.33 | 0.03 | 93 | 1012.3 |
| 20260904215242 | 61 | 172 | 0.0 | 0.0 | 0.02 | 0.33 | 0.03 | 93 | 1012.2 |
| 20260904214249 | 61 | 172 | 0.0 | 0.0 | 0.02 | 0.33 | 0.03 | 92 | 1012.2 |
| 20260904213741 | 61 | 172 | 0.0 | 0.0 | 0.02 | 0.33 | 0.03 | 91 | 1012.2 |
| 20260904213236 | 61 | 172 | 0.0 | 0.0 | 0.02 | 0.33 | 0.03 | 92 | 1012.1 |
| 20260904212731 | 61 | 172 | 0.0 | 0.0 | 0.02 | 0.33 | 0.03 | 94 | 1012.1 |
| 20260904212459 | 61 | 172 | 0.0 | 0.0 | 0.02 | 0.33 | 0.03 | 94 | 1012.1 |
| 20260904211718 | 61 | 172 | 0.0 | 0.0 | 0.02 | 0.33 | 0.03 | 95 | 1012.1 |
| 20260904211212 | 60 | 172 | 0.0 | 0.0 | 0.01 | 0.32 | 0.02 | 94 | 1012.1 |
| 20260904211203 | 60 | 172 | 0.0 | 0.0 | 0.01 | 0.32 | 0.02 | 93 | 1012.1 |
| 20260904210200 | 60 | 172 | 0.0 | 1.0 | 0.01 | 0.32 | 0.02 | 91 | 1012.1 |
| 20260904205654 | 60 | 172 | 0.0 | 2.0 | 0.00 | 0.31 | 0.01 | 91 | 1012.3 |
| 20260904205148 | 61 | 172 | 1.0 | 2.0 | 0.00 | 0.31 | 0.01 | 91 | 1012.3 |
| 20260904204644 | 61 | 176 | 0.0 | 2.0 | 0.00 | 0.32 | 0.01 | 90 | 1012.3 |
| 20260904204136 | 61 | 176 | 0.0 | 2.0 | 0.00 | 0.32 | 0.01 | 91 | 1012.2 |
| 20260904203630 | 61 | 176 | 1.0 | 2.0 | 0.00 | 0.32 | 0.01 | 88 | 1012.2 |
| 20260904203350 | 61 | 177 | 1.0 | 3.0 | 0.00 | 0.32 | 0.01 | 87 | 1012.2 |
| 20260904202619 | 61 | 188 | 1.0 | 3.0 | 0.00 | 0.32 | 0.01 | 87 | 1012.1 |
| 20260904202328 | 61 | 134 | 1.0 | 3.0 | 0.00 | 0.32 | 0.01 | 89 | 1012.1 |
| 20260904201840 | 61 | 162 | 1.0 | 3.0 | 0.00 | 0.32 | 0.01 | 89 | 1012.0 |
| 20260904201100 | 61 | 142 | 1.0 | 3.0 | 0.00 | 0.32 | 0.01 | 87 | 1012.0 |
| 20260904200555 | 61 | 103 | 1.0 | 3.0 | 0.00 | 0.32 | 0.01 | 87 | 1011.9 |
| 20260904200048 | 62 | 142 | 1.0 | 2.0 | 0.00 | 0.32 | 0.01 | 87 | 1012.0 |
| 20260904200040 | 62 | 142 | 1.0 | 2.0 | 0.00 | 0.32 | 0.01 | 85 | 1012.0 |
| 20260904195036 | 62 | 59 | 0.0 | 2.0 | 0.00 | 0.32 | 0.01 | 83 | 1011.9 |
| 20260904194531 | 63 | 28 | 0.0 | 2.0 | 0.00 | 0.32 | 0.01 | 84 | 1011.9 |
| 20260904194023 | 63 | 138 | 0.0 | 1.0 | 0.00 | 0.32 | 0.01 | 86 | 1011.9 |
| 20260904193518 | 63 | 138 | 0.0 | 3.0 | 0.00 | 0.32 | 0.01 | 81 | 1011.9 |
| 20260904193011 | 64 | 138 | 1.0 | 3.0 | 0.00 | 0.32 | 0.01 | 75 | 1011.8 |
| 20260904192510 | 64 | 196 | 1.0 | 3.0 | 0.00 | 0.32 | 0.01 | 75 | 1011.9 |
| 20260904192010 | 65 | 55 | 1.0 | 2.0 | 0.00 | 0.32 | 0.01 | 75 | 1011.8 |
| 20260904191509 | 65 | 94 | 1.0 | 4.0 | 0.00 | 0.32 | 0.01 | 77 | 1011.7 |
| 20260904191239 | 65 | 136 | 1.0 | 4.0 | 0.00 | 0.32 | 0.01 | 77 | 1011.6 |
| 20260904190509 | 64 | 219 | 0.0 | 3.0 | 0.00 | 0.32 | 0.01 | 82 | 1011.7 |
| 20260904190004 | 63 | 116 | 0.0 | 1.0 | 0.00 | 0.32 | 0.01 | 81 | 1011.7 |
| 20260904185722 | 62 | 198 | 0.0 | 2.0 | 0.00 | 0.32 | 0.01 | 90 | 1011.7 |
| 20260904185004 | 61 | 118 | 0.0 | 2.0 | 0.00 | 0.32 | 0.01 | 89 | 1011.7 |
| 20260904184505 | 61 | 98 | 0.0 | 1.0 | 0.00 | 0.32 | 0.01 | 92 | 1011.8 |
| 20260904184006 | 61 | 127 | 0.0 | 2.0 | 0.00 | 0.32 | 0.01 | 93 | 1011.9 |
| 20260904183505 | 60 | 136 | 0.0 | 2.0 | 0.00 | 0.32 | 0.01 | 93 | 1012.0 |
| 20260904183007 | 60 | 142 | 0.0 | 1.0 | 0.00 | 0.32 | 0.01 | 94 | 1012.0 |
| 20260904182730 | 59 | 124 | 0.0 | 1.0 | 0.00 | 0.32 | 0.01 | 95 | 1012.1 |
| 20260904182006 | 59 | 160 | 1.0 | 3.0 | 0.00 | 0.32 | 0.01 | 96 | 1012.1 |
| 20260904181505 | 58 | 167 | 1.0 | 3.0 | 0.00 | 0.32 | 0.01 | 97 | 1012.1 |
| 20260904181007 | 57 | 118 | 0.0 | 1.0 | 0.00 | 0.32 | 0.01 | 97 | 1012.1 |
| 20260904180730 | 57 | 26 | 0.0 | 1.0 | 0.00 | 0.32 | 0.01 | 98 | 1012.1 |
| 20260904180004 | 56 | 23 | 0.0 | 1.0 | 0.00 | 0.32 | 0.01 | 98 | 1012.1 |
| 20260904175505 | 56 | 23 | 0.0 | 1.0 | 0.00 | 0.32 | 0.01 | 98 | 1012.1 |
| 20260904175009 | 55 | 23 | 0.0 | 1.0 | 0.00 | 0.32 | 0.01 | 98 | 1012.2 |
| 20260904174502 | 55 | 23 | 0.0 | 1.0 | 0.00 | 0.32 | 0.01 | 98 | 1012.2 |
| 20260904174003 | 55 | 9 | 0.0 | 0.0 | 0.00 | 0.32 | 0.01 | 98 | 1012.2 |
| 20260904173504 | 54 | 9 | 0.0 | 0.0 | 0.00 | 0.32 | 0.01 | 98 | 1012.2 |
| 20260904173001 | 54 | 9 | 0.0 | 1.0 | 0.00 | 0.32 | 0.01 | 98 | 1012.3 |
| 20260904172501 | 54 | 9 | 0.0 | 2.0 | 0.00 | 0.32 | 0.01 | 98 | 1012.3 |
| 20260904171956 | 54 | 5 | 1.0 | 3.0 | 0.00 | 0.32 | 0.01 | 98 | 1012.3 |
| 20260904171458 | 54 | 0 | 0.0 | 3.0 | 0.00 | 0.32 | 0.01 | 98 | 1012.3 |
| 20260904170956 | 54 | 104 | 0.0 | 2.0 | 0.00 | 0.32 | 0.01 | 98 | 1012.3 |
| 20260904170456 | 53 | 182 | 0.0 | 0.0 | 0.00 | 0.32 | 0.01 | 98 | 1012.3 |
| 20260904165953 | 52 | 186 | 0.0 | 0.0 | 0.00 | 0.32 | 0.01 | 98 | 1012.3 |
| 20260904165721 | 52 | 186 | 0.0 | 0.0 | 0.00 | 0.32 | 0.01 | 98 | 1012.3 |
| 20260904164953 | 52 | 186 | 0.0 | 0.0 | 0.00 | 0.32 | 0.01 | 98 | 1012.4 |
| 20260904164451 | 52 | 257 | 0.0 | 0.0 | 0.00 | 0.32 | 0.01 | 98 | 1012.4 |
| 20260904163950 | 51 | 257 | 0.0 | 0.0 | 0.00 | 0.32 | 0.01 | 98 | 1012.4 |
| 20260904163710 | 51 | 257 | 0.0 | 0.0 | 0.00 | 0.32 | 0.01 | 98 | 1012.4 |
| 20260904162944 | 51 | 257 | 0.0 | 2.0 | 0.00 | 0.32 | 0.01 | 98 | 1012.4 |
| 20260904162442 | 51 | 257 | 0.0 | 2.0 | 0.00 | 0.32 | 0.01 | 98 | 1012.4 |
| 20260904161941 | 51 | 57 | 0.0 | 1.0 | 0.00 | 0.32 | 0.01 | 98 | 1012.4 |
| 20260904161441 | 50 | 102 | 0.0 | 1.0 | 0.00 | 0.32 | 0.01 | 98 | 1012.4 |
| 20260904160936 | 50 | 103 | 0.0 | 1.0 | 0.00 | 0.32 | 0.01 | 98 | 1012.4 |
| 20260904160430 | 50 | 221 | 0.0 | 0.0 | 0.00 | 0.32 | 0.01 | 97 | 1012.3 |
| 20260904155922 | 49 | 221 | 0.0 | 0.0 | 0.00 | 0.32 | 0.01 | 98 | 1012.2 |
| 20260904155417 | 49 | 221 | 0.0 | 0.0 | 0.00 | 0.32 | 0.01 | 97 | 1012.2 |
| 20260904154912 | 49 | 221 | 0.0 | 0.0 | 0.00 | 0.32 | 0.01 | 97 | 1012.2 |
| 20260904154405 | 49 | 221 | 0.0 | 0.0 | 0.00 | 0.32 | 0.01 | 97 | 1012.3 |
| 20260904153859 | 49 | 221 | 0.0 | 0.0 | 0.00 | 0.32 | 0.01 | 97 | 1012.2 |
| 20260904153353 | 48 | 221 | 0.0 | 0.0 | 0.00 | 0.32 | 0.01 | 97 | 1012.2 |
| 20260904152848 | 48 | 221 | 0.0 | 2.0 | 0.00 | 0.32 | 0.01 | 97 | 1012.2 |
| 20260904152342 | 48 | 221 | 0.0 | 2.0 | 0.00 | 0.32 | 0.01 | 97 | 1012.1 |
| 20260904151835 | 48 | 221 | 0.0 | 0.0 | 0.00 | 0.32 | 0.01 | 97 | 1012.1 |
| 20260904151329 | 48 | 221 | 1.0 | 2.0 | 0.00 | 0.32 | 0.01 | 97 | 1012.1 |
| 20260904150823 | 48 | 221 | 1.0 | 2.0 | 0.00 | 0.32 | 0.01 | 97 | 1012.1 |
| 20260904150317 | 47 | 213 | 0.0 | 1.0 | 0.00 | 0.32 | 0.01 | 97 | 1012.1 |
| 20260904145810 | 47 | 213 | 0.0 | 1.0 | 0.00 | 0.32 | 0.01 | 97 | 1012.0 |
| 20260904145306 | 47 | 213 | 0.0 | 1.0 | 0.00 | 0.32 | 0.01 | 97 | 1011.9 |
| 20260904145033 | 47 | 213 | 0.0 | 2.0 | 0.00 | 0.32 | 0.01 | 97 | 1011.9 |
| 20260904144253 | 47 | 217 | 0.0 | 2.0 | 0.00 | 0.32 | 0.01 | 97 | 1011.8 |
| 20260904143747 | 47 | 202 | 0.0 | 2.0 | 0.00 | 0.32 | 0.01 | 97 | 1011.7 |
| 20260904143509 | 47 | 212 | 0.0 | 2.0 | 0.01 | 0.32 | 0.01 | 97 | 1011.7 |
| 20260904142735 | 47 | 211 | 1.0 | 2.0 | 0.01 | 0.32 | 0.01 | 97 | 1011.6 |
| 20260904142231 | 47 | 217 | 0.0 | 2.0 | 0.01 | 0.32 | 0.01 | 97 | 1011.6 |
| 20260904142223 | 47 | 213 | 0.0 | 1.0 | 0.01 | 0.32 | 0.01 | 97 | 1011.6 |
| 20260904141217 | 47 | 213 | 0.0 | 1.0 | 0.01 | 0.32 | 0.01 | 97 | 1011.6 |
| 20260904140712 | 47 | 213 | 0.0 | 1.0 | 0.01 | 0.32 | 0.01 | 97 | 1011.5 |
| 20260904140440 | 47 | 213 | 0.0 | 2.0 | 0.01 | 0.32 | 0.01 | 97 | 1011.5 |
| 20260904135659 | 47 | 213 | 1.0 | 2.0 | 0.01 | 0.32 | 0.01 | 97 | 1011.4 |
| 20260904135153 | 47 | 215 | 1.0 | 3.0 | 0.01 | 0.32 | 0.01 | 97 | 1011.4 |
| 20260904134648 | 47 | 215 | 1.0 | 3.0 | 0.01 | 0.32 | 0.01 | 97 | 1011.4 |
| 20260904134141 | 47 | 224 | 1.0 | 3.0 | 0.01 | 0.32 | 0.01 | 97 | 1011.3 |
| 20260904133635 | 47 | 227 | 1.0 | 3.0 | 0.01 | 0.32 | 0.01 | 97 | 1011.2 |
| 20260904133132 | 47 | 211 | 0.0 | 2.0 | 0.00 | 0.31 | 0.00 | 97 | 1011.2 |
| 20260904132900 | 47 | 211 | 0.0 | 2.0 | 0.00 | 0.31 | 0.00 | 97 | 1011.1 |
| 20260904132116 | 48 | 211 | 1.0 | 2.0 | 0.00 | 0.31 | 0.00 | 97 | 1011.1 |
| 20260904131611 | 48 | 198 | 1.0 | 2.0 | 0.00 | 0.31 | 0.00 | 97 | 1011.1 |
| 20260904131333 | 48 | 211 | 0.0 | 2.0 | 0.00 | 0.31 | 0.00 | 97 | 1011.1 |
| 20260904131049 | 48 | 212 | 0.0 | 2.0 | 0.00 | 0.31 | 0.00 | 97 | 1011.0 |
| 20260904130053 | 48 | 213 | 0.0 | 1.0 | 0.00 | 0.31 | 0.00 | 97 | 1011.0 |
| 20260904125824 | 48 | 212 | 0.0 | 2.0 | 0.00 | 0.31 | 0.00 | 97 | 1011.0 |
| 20260904125041 | 48 | 212 | 0.0 | 2.0 | 0.00 | 0.32 | 0.00 | 97 | 1010.9 |
| 20260904124535 | 48 | 214 | 0.0 | 1.0 | 0.00 | 0.32 | 0.00 | 97 | 1010.9 |
| 20260904124028 | 48 | 214 | 0.0 | 0.0 | 0.00 | 0.32 | 0.00 | 97 | 1010.9 |
| 20260904123529 | 48 | 214 | 0.0 | 2.0 | 0.00 | 0.32 | 0.00 | 97 | 1010.8 |
| 20260904123027 | 48 | 214 | 1.0 | 2.0 | 0.00 | 0.32 | 0.00 | 97 | 1010.8 |
| 20260904122526 | 48 | 199 | 0.0 | 1.0 | 0.00 | 0.32 | 0.00 | 97 | 1010.7 |
| 20260904122028 | 48 | 192 | 0.0 | 3.0 | 0.00 | 0.32 | 0.00 | 97 | 1010.7 |
| 20260904121523 | 48 | 192 | 1.0 | 3.0 | 0.00 | 0.32 | 0.00 | 97 | 1010.8 |
| 20260904121026 | 48 | 189 | 1.0 | 4.0 | 0.00 | 0.32 | 0.00 | 97 | 1010.7 |
| 20260904120523 | 48 | 207 | 1.0 | 4.0 | 0.00 | 0.32 | 0.00 | 97 | 1010.7 |
| 20260904120026 | 48 | 202 | 0.0 | 3.0 | 0.00 | 0.32 | 0.00 | 97 | 1010.6 |
| 20260904115524 | 48 | 230 | 1.0 | 3.0 | 0.00 | 0.32 | 0.00 | 97 | 1010.5 |
| 20260904115025 | 48 | 232 | 1.0 | 3.0 | 0.00 | 0.32 | 0.00 | 97 | 1010.5 |
| 20260904114525 | 48 | 202 | 1.0 | 3.0 | 0.00 | 0.32 | 0.00 | 97 | 1010.6 |
| 20260904114026 | 48 | 213 | 1.0 | 2.0 | 0.00 | 0.32 | 0.00 | 97 | 1010.5 |
| 20260904113523 | 48 | 227 | 1.0 | 2.0 | 0.00 | 0.32 | 0.00 | 97 | 1010.4 |
| 20260904113025 | 48 | 200 | 0.0 | 2.0 | 0.00 | 0.32 | 0.00 | 96 | 1010.4 |
| 20260904112523 | 48 | 202 | 0.0 | 1.0 | 0.00 | 0.32 | 0.00 | 96 | 1010.4 |
| 20260904112251 | 48 | 202 | 0.0 | 1.0 | 0.00 | 0.32 | 0.00 | 96 | 1010.3 |
| 20260904111807 | 49 | 202 | 0.0 | 2.0 | 0.00 | 0.32 | 0.00 | 97 | 1010.4 |
| 20260904111302 | 49 | 202 | 0.0 | 2.0 | 0.00 | 0.32 | 0.00 | 97 | 1010.3 |
| 20260904110529 | 49 | 202 | 0.0 | 2.0 | 0.00 | 0.32 | 0.00 | 97 | 1010.2 |
| 20260904110026 | 49 | 202 | 0.0 | 2.0 | 0.00 | 0.32 | 0.00 | 97 | 1010.2 |
| 20260904105518 | 49 | 202 | 0.0 | 2.0 | 0.00 | 0.32 | 0.00 | 97 | 1010.2 |
| 20260904105228 | 49 | 202 | 0.0 | 1.0 | 0.00 | 0.32 | 0.00 | 97 | 1010.3 |
| 20260904104506 | 49 | 202 | 0.0 | 1.0 | 0.00 | 0.32 | 0.00 | 97 | 1010.2 |
| 20260904103959 | 49 | 202 | 0.0 | 1.0 | 0.00 | 0.32 | 0.00 | 97 | 1010.2 |
| 20260904103453 | 49 | 202 | 0.0 | 1.0 | 0.00 | 0.32 | 0.00 | 97 | 1010.2 |
| 20260904103215 | 49 | 202 | 0.0 | 2.0 | 0.00 | 0.32 | 0.00 | 96 | 1010.2 |
| 20260904102442 | 49 | 202 | 0.0 | 2.0 | 0.00 | 0.32 | 0.00 | 97 | 1010.2 |
| 20260904101936 | 49 | 202 | 0.0 | 2.0 | 0.00 | 0.32 | 0.00 | 97 | 1010.1 |
| 20260904101658 | 49 | 203 | 0.0 | 2.0 | 0.00 | 0.32 | 0.00 | 97 | 1010.1 |
| 20260904100920 | 49 | 203 | 0.0 | 2.0 | 0.00 | 0.32 | 0.00 | 97 | 1010.1 |
| 20260904100417 | 49 | 203 | 0.0 | 1.0 | 0.00 | 0.32 | 0.00 | 97 | 1010.1 |
| 20260904095914 | 49 | 203 | 0.0 | 2.0 | 0.00 | 0.32 | 0.00 | 97 | 1010.1 |
| 20260904095406 | 49 | 203 | 0.0 | 2.0 | 0.00 | 0.32 | 0.00 | 97 | 1010.1 |
| 20260904095127 | 49 | 211 | 0.0 | 2.0 | 0.00 | 0.32 | 0.00 | 96 | 1010.1 |
| 20260904094622 | 49 | 211 | 0.0 | 2.0 | 0.00 | 0.32 | 0.00 | 96 | 1010.1 |
| 20260904093848 | 49 | 219 | 0.0 | 1.0 | 0.00 | 0.32 | 0.00 | 96 | 1010.0 |
| 20260904093342 | 49 | 219 | 0.0 | 1.0 | 0.00 | 0.32 | 0.00 | 96 | 1010.0 |
| 20260904093104 | 49 | 219 | 0.0 | 0.0 | 0.00 | 0.32 | 0.00 | 96 | 1010.0 |
| 20260904092329 | 49 | 219 | 0.0 | 0.0 | 0.00 | 0.32 | 0.00 | 96 | 1010.0 |
| 20260904091824 | 50 | 219 | 0.0 | 0.0 | 0.00 | 0.32 | 0.00 | 96 | 1010.0 |
| 20260904091536 | 50 | 219 | 0.0 | 2.0 | 0.00 | 0.32 | 0.00 | 96 | 1010.1 |
| 20260904090808 | 50 | 219 | 0.0 | 2.0 | 0.00 | 0.32 | 0.00 | 96 | 1010.1 |
| 20260904090304 | 50 | 219 | 0.0 | 1.0 | 0.00 | 0.32 | 0.00 | 96 | 1010.1 |
| 20260904085759 | 50 | 219 | 0.0 | 1.0 | 0.00 | 0.32 | 0.00 | 96 | 1010.1 |
| 20260904085734 | 50 | 219 | 0.0 | 0.0 | 0.00 | 0.32 | 0.00 | 96 | 1010.1 |
| 20260904085015 | 50 | 219 | 0.0 | 0.0 | 0.00 | 0.32 | 0.00 | 96 | 1010.1 |
| 20260904084243 | 50 | 219 | 0.0 | 0.0 | 0.00 | 0.32 | 0.00 | 96 | 1010.1 |
| 20260904083736 | 50 | 219 | 0.0 | 0.0 | 0.00 | 0.32 | 0.00 | 96 | 1010.0 |
| 20260904083230 | 50 | 219 | 0.0 | 0.0 | 0.00 | 0.32 | 0.00 | 96 | 1010.1 |
| 20260904082941 | 50 | 219 | 0.0 | 0.0 | 0.00 | 0.32 | 0.00 | 97 | 1010.0 |
| 20260904082221 | 51 | 219 | 0.0 | 0.0 | 0.00 | 0.32 | 0.00 | 97 | 1010.0 |
| 20260904081712 | 51 | 219 | 0.0 | 0.0 | 0.00 | 0.32 | 0.00 | 97 | 1010.1 |
| 20260904081206 | 51 | 219 | 0.0 | 0.0 | 0.00 | 0.32 | 0.00 | 96 | 1010.0 |
| 20260904080700 | 51 | 219 | 0.0 | 1.0 | 0.00 | 0.32 | 0.00 | 96 | 1010.0 |
| 20260904080155 | 51 | 219 | 0.0 | 1.0 | 0.00 | 0.32 | 0.00 | 97 | 1010.0 |
| 20260904075648 | 51 | 219 | 0.0 | 1.0 | 0.00 | 0.33 | 0.00 | 97 | 1010.0 |
| 20260904075142 | 51 | 219 | 0.0 | 2.0 | 0.00 | 0.33 | 0.00 | 97 | 1010.1 |
| 20260904074636 | 51 | 219 | 0.0 | 2.0 | 0.00 | 0.33 | 0.00 | 97 | 1010.2 |
| 20260904074132 | 51 | 219 | 1.0 | 2.0 | 0.00 | 0.33 | 0.00 | 97 | 1010.2 |
| 20260904073623 | 51 | 223 | 0.0 | 2.0 | 0.00 | 0.33 | 0.00 | 97 | 1010.2 |
| 20260904073116 | 51 | 244 | 0.0 | 2.0 | 0.00 | 0.33 | 0.00 | 97 | 1010.1 |
| 20260904072617 | 51 | 209 | 0.0 | 1.0 | 0.00 | 0.33 | 0.00 | 97 | 1010.0 |
| 20260904072334 | 51 | 209 | 0.0 | 1.0 | 0.00 | 0.33 | 0.00 | 97 | 1009.7 |
| 20260904071601 | 51 | 209 | 0.0 | 2.0 | 0.00 | 0.33 | 0.00 | 97 | 1009.8 |
| 20260904071330 | 51 | 211 | 0.0 | 2.0 | 0.00 | 0.33 | 0.00 | 97 | 1009.4 |
| 20260904070554 | 51 | 210 | 0.0 | 1.0 | 0.00 | 0.33 | 0.00 | 97 | 1009.7 |
| 20260904070054 | 51 | 210 | 0.0 | 1.0 | 0.00 | 0.33 | 0.00 | 97 | 1009.8 |
| 20260904065554 | 51 | 209 | 0.0 | 0.0 | 0.00 | 0.33 | 0.33 | 97 | 1009.9 |
| 20260904065052 | 51 | 209 | 1.0 | 3.0 | 0.00 | 0.33 | 0.33 | 97 | 1010.1 |
| 20260904064814 | 51 | 209 | 1.0 | 3.0 | 0.00 | 0.33 | 0.33 | 96 | 1010.2 |
| 20260904064055 | 51 | 197 | 0.0 | 2.0 | 0.00 | 0.33 | 0.33 | 96 | 1010.2 |
| 20260904063553 | 51 | 213 | 0.0 | 0.0 | 0.00 | 0.33 | 0.33 | 96 | 1010.2 |
| 20260904063052 | 51 | 214 | 0.0 | 1.0 | 0.00 | 0.33 | 0.33 | 96 | 1010.2 |
| 20260904062553 | 51 | 214 | 0.0 | 2.0 | 0.00 | 0.33 | 0.33 | 96 | 1010.3 |
| 20260904062056 | 51 | 214 | 0.0 | 2.0 | 0.00 | 0.33 | 0.33 | 96 | 1010.2 |
| 20260904061551 | 51 | 209 | 0.0 | 1.0 | 0.00 | 0.33 | 0.33 | 96 | 1010.2 |
| 20260904061305 | 51 | 210 | 0.0 | 1.0 | 0.00 | 0.33 | 0.33 | 96 | 1010.2 |
| 20260904060549 | 51 | 210 | 0.0 | 2.0 | 0.00 | 0.33 | 0.33 | 96 | 1010.1 |
| 20260904060048 | 51 | 210 | 1.0 | 3.0 | 0.01 | 0.33 | 0.33 | 96 | 1010.1 |
| 20260904055548 | 51 | 201 | 0.0 | 3.0 | 0.01 | 0.33 | 0.33 | 96 | 1010.2 |
| 20260904055314 | 51 | 209 | 0.0 | 2.0 | 0.01 | 0.33 | 0.33 | 96 | 1010.2 |
| 20260904054550 | 51 | 209 | 0.0 | 2.0 | 0.01 | 0.33 | 0.33 | 96 | 1010.2 |
| 20260904054048 | 52 | 187 | 0.0 | 1.0 | 0.01 | 0.33 | 0.33 | 96 | 1010.1 |
| 20260904053551 | 52 | 187 | 0.0 | 0.0 | 0.01 | 0.33 | 0.33 | 96 | 1010.1 |
| 20260904053049 | 52 | 187 | 0.0 | 1.0 | 0.01 | 0.33 | 0.33 | 96 | 1010.1 |
| 20260904052825 | 52 | 187 | 0.0 | 1.0 | 0.01 | 0.33 | 0.33 | 96 | 1010.0 |
| 20260904052318 | 52 | 182 | 0.0 | 0.0 | 0.02 | 0.33 | 0.33 | 96 | 1010.0 |
| 20260904051547 | 52 | 182 | 0.0 | 0.0 | 0.02 | 0.33 | 0.33 | 96 | 1010.1 |
| 20260904051044 | 52 | 182 | 0.0 | 0.0 | 0.03 | 0.33 | 0.33 | 96 | 1010.1 |
| 20260904050542 | 52 | 182 | 0.0 | 0.0 | 0.04 | 0.33 | 0.33 | 96 | 1010.1 |
| 20260904050044 | 52 | 182 | 0.0 | 1.0 | 0.04 | 0.32 | 0.33 | 96 | 1010.1 |
| 20260904045807 | 52 | 182 | 1.0 | 3.0 | 0.05 | 0.32 | 0.32 | 96 | 1010.1 |
| 20260904045040 | 52 | 184 | 1.0 | 3.0 | 0.06 | 0.32 | 0.32 | 96 | 1010.1 |
| 20260904044538 | 52 | 200 | 0.0 | 3.0 | 0.08 | 0.32 | 0.32 | 96 | 1010.0 |
| 20260904044038 | 52 | 208 | 0.0 | 1.0 | 0.08 | 0.32 | 0.32 | 96 | 1010.1 |
| 20260904043536 | 52 | 208 | 0.0 | 1.0 | 0.09 | 0.32 | 0.32 | 96 | 1010.1 |
| 20260904043036 | 52 | 208 | 0.0 | 4.0 | 0.09 | 0.32 | 0.32 | 96 | 1010.1 |
| 20260904042535 | 52 | 207 | 1.0 | 4.0 | 0.09 | 0.32 | 0.32 | 96 | 1010.1 |
| 20260904042301 | 52 | 231 | 1.0 | 7.0 | 0.08 | 0.31 | 0.31 | 96 | 1010.1 |
| 20260904041531 | 52 | 147 | 1.0 | 7.0 | 0.07 | 0.30 | 0.31 | 96 | 1010.1 |
| 20260904041030 | 52 | 213 | 1.0 | 5.0 | 0.07 | 0.30 | 0.30 | 96 | 1010.1 |
| 20260904040529 | 52 | 124 | 1.0 | 6.0 | 0.06 | 0.29 | 0.29 | 96 | 1010.1 |
| 20260904040303 | 52 | 217 | 1.0 | 6.0 | 0.05 | 0.28 | 0.28 | 96 | 1010.0 |
| 20260904035530 | 52 | 160 | 1.0 | 3.0 | 0.04 | 0.27 | 0.27 | 96 | 1010.1 |
| 20260904035252 | 52 | 225 | 1.0 | 3.0 | 0.03 | 0.26 | 0.26 | 96 | 1010.1 |
| 20260904034518 | 53 | 197 | 0.0 | 2.0 | 0.01 | 0.24 | 0.25 | 96 | 1010.1 |
| 20260904034012 | 53 | 178 | 0.0 | 6.0 | 0.01 | 0.24 | 0.24 | 96 | 1010.0 |
| 20260904033506 | 53 | 182 | 0.0 | 6.0 | 0.00 | 0.23 | 0.23 | 96 | 1010.0 |
| 20260904032457 | 53 | 205 | 0.0 | 2.0 | 0.00 | 0.23 | 0.23 | 96 | 1009.7 |
| 20260904031946 | 53 | 205 | 0.0 | 3.0 | 0.00 | 0.23 | 0.23 | 96 | 1009.7 |
| 20260904031440 | 53 | 161 | 1.0 | 3.0 | 0.00 | 0.23 | 0.23 | 96 | 1009.5 |
| 20260904030938 | 53 | 177 | 1.0 | 3.0 | 0.00 | 0.23 | 0.23 | 95 | 1009.4 |
| 20260904030925 | 53 | 184 | 0.0 | 3.0 | 0.00 | 0.23 | 0.23 | 95 | 1009.4 |
| 20260904025924 | 53 | 111 | 0.0 | 2.0 | 0.00 | 0.23 | 0.23 | 95 | 1009.4 |
| 20260904025420 | 53 | 80 | 0.0 | 3.0 | 0.00 | 0.23 | 0.23 | 95 | 1009.4 |
| 20260904025132 | 53 | 162 | 1.0 | 3.0 | 0.00 | 0.23 | 0.23 | 95 | 1009.3 |
| 20260904024405 | 54 | 203 | 1.0 | 3.0 | 0.00 | 0.23 | 0.23 | 95 | 1009.3 |
| 20260904023903 | 54 | 236 | 0.0 | 2.0 | 0.00 | 0.23 | 0.23 | 95 | 1009.4 |
| 20260904023351 | 54 | 239 | 0.0 | 2.0 | 0.00 | 0.23 | 0.23 | 95 | 1009.4 |
| 20260904022849 | 54 | 323 | 0.0 | 0.0 | 0.00 | 0.23 | 0.23 | 95 | 1009.4 |
| 20260904022343 | 54 | 323 | 0.0 | 0.0 | 0.00 | 0.23 | 0.23 | 95 | 1009.3 |
| 20260904021836 | 54 | 324 | 0.0 | 0.0 | 0.00 | 0.23 | 0.23 | 95 | 1009.3 |
| 20260904021330 | 55 | 324 | 0.0 | 0.0 | 0.00 | 0.24 | 0.23 | 95 | 1009.2 |
| 20260904021044 | 55 | 324 | 0.0 | 0.0 | 0.00 | 0.25 | 0.23 | 95 | 1009.1 |
| 20260904020319 | 55 | 324 | 0.0 | 0.0 | 0.01 | 0.27 | 0.23 | 95 | 1009.1 |
| 20260904015816 | 55 | 324 | 0.0 | 0.0 | 0.01 | 0.28 | 0.23 | 95 | 1009.1 |
| 20260904015532 | 55 | 324 | 0.0 | 0.0 | 0.02 | 0.29 | 0.23 | 95 | 1009.1 |
| 20260904014807 | 55 | 324 | 0.0 | 0.0 | 0.03 | 0.32 | 0.23 | 95 | 1009.1 |
| 20260904014307 | 55 | 324 | 0.0 | 1.0 | 0.05 | 0.34 | 0.23 | 95 | 1009.2 |
| 20260904013807 | 55 | 324 | 0.0 | 1.0 | 0.07 | 0.34 | 0.23 | 95 | 1009.1 |
| 20260904013306 | 55 | 324 | 0.0 | 0.0 | 0.08 | 0.35 | 0.23 | 95 | 1009.1 |
| 20260904012803 | 55 | 324 | 0.0 | 1.0 | 0.08 | 0.36 | 0.23 | 95 | 1009.1 |
| 20260904012300 | 56 | 324 | 0.0 | 1.0 | 0.09 | 0.37 | 0.23 | 95 | 1009.1 |
| 20260904011801 | 56 | 324 | 0.0 | 0.0 | 0.09 | 0.37 | 0.23 | 95 | 1009.1 |
| 20260904011300 | 56 | 244 | 0.0 | 1.0 | 0.09 | 0.37 | 0.23 | 95 | 1009.0 |
| 20260904010759 | 56 | 243 | 0.0 | 1.0 | 0.10 | 0.37 | 0.23 | 94 | 1009.0 |